Location: Eaton
(41.3139°N, 82.0207°W)
Time: 11:35:30
(UTC+00:00)

Cosmos 1315 Rocket - Pass Details

Date: 17 June 2021
Orbit: 528 x 568 km, 81.2° (Epoch: 26 July)

Event Time Altitude Azimuth Distance (km) Brightness Sun altitude
Rises 02:43:29 0° 342° (NNW) 2,778 7.8 -14.8°
Reaches altitude 10° 02:45:47 10° 334° (NNW) 1,875 6.8 -15.1°
Maximum altitude 02:49:37 38° 266° (W) 876 4.1 -15.5°
Enters shadow 02:53:04 12° 200° (SSW) 1,722 5.0 -15.9°
